Location: Wildlife_Club
(35.6000°N, 81.4330°W)
Time: 12:58:45
(UTC-04:00)

Iridium 56 - Visible Passes

Search period start: 29 September 2016 00:00
Search period end: 09 October 2016 00:00
Orbit: 776 x 779 km, 86.4° (Epoch: 28 September)

Date Brightness Start Highest point End Pass type
(mag) Time Alt. Az. Time Alt. Az. Time Alt. Az.
29 Sep 6.7 19:36:08 10° NNW 19:41:09 50° W 19:46:10 10° SSW visible
30 Sep 7.5 06:49:28 10° SSE 06:54:10 35° E 06:58:52 10° NNE visible
01 Oct 8.6 06:17:22 10° SE 06:20:53 19° E 06:24:26 10° NE visible
01 Oct 8.7 20:11:02 10° NW 20:14:25 18° W 20:17:49 10° WSW visible
02 Oct 7.6 19:36:31 10° NNW 19:41:10 33° W 19:45:47 10° SSW visible
03 Oct 6.6 06:49:09 10° SSE 06:54:11 53° E 06:59:15 10° NNE visible
04 Oct 7.9 06:16:30 10° SE 06:20:50 27° E 06:25:12 10° NNE visible
04 Oct 9.0 20:12:33 10° WNW 20:14:19 12° WNW 20:16:05 10° W visible
05 Oct 8.8 05:44:53 10° ESE 05:47:37 14° E 05:50:21 10° NE visible
05 Oct 8.4 19:37:07 10° NNW 19:41:08 23° W 19:45:08 10° SW visible
06 Oct 5.7 06:49:03 10° S 06:54:14 79° E 06:59:28 10° N visible
07 Oct 7.0 06:16:00 10° SSE 06:20:49 40° E 06:25:41 10° NNE visible
08 Oct 8.1 05:43:40 10° SE 05:47:32 21° E 05:51:24 10° NE visible
08 Oct 8.7 19:38:05 10° NW 19:41:04 15° W 19:44:01 10° WSW visible
